Time,TemperatureF,DewpointF,PressureIn,WindDirection,WindDirectionDegrees,WindSpeedMPH,WindSpeedGustMPH,Humidity,HourlyPrecipIn,Conditions,Clouds,dailyrainin,SoftwareType,DateUTC
2013-03-11 00:00:00,49.3,36.1,29.93,WSW,248,0.0,0.0,60,0.00,,,0.00,WUHU216HW,2013-03-11 07:00:00,
2013-03-11 00:05:00,49.3,36.1,29.93,WSW,248,0.0,0.0,60,0.00,,,0.00,WUHU216HW,2013-03-11 07:05:00,
2013-03-11 00:30:00,48.4,35.6,29.92,WSW,248,0.0,0.0,61,0.00,,,0.00,WUHU216HW,2013-03-11 07:30:00,
2013-03-11 00:35:00,48.4,35.6,29.92,WSW,248,0.0,0.0,61,0.00,,,0.00,WUHU216HW,2013-03-11 07:35:00,
2013-03-11 01:00:00,47.5,35.6,29.92,WSW,248,0.0,0.0,63,0.00,,,0.00,WUHU216HW,2013-03-11 08:00:00,
2013-03-11 01:05:00,47.5,35.6,29.92,WSW,248,0.0,0.0,63,0.00,,,0.00,WUHU216HW,2013-03-11 08:05:00,
2013-03-11 01:30:00,46.4,35.3,29.91,WSW,248,0.0,0.0,65,0.00,,,0.00,WUHU216HW,2013-03-11 08:30:00,
2013-03-11 01:35:00,46.4,35.3,29.91,WSW,248,0.0,0.0,65,0.00,,,0.00,WUHU216HW,2013-03-11 08:35:00,
2013-03-11 02:00:00,45.7,35.0,29.92,WSW,248,0.0,0.0,66,0.00,,,0.00,WUHU216HW,2013-03-11 09:00:00,
2013-03-11 02:05:00,45.7,35.0,29.92,WSW,248,0.0,0.0,66,0.00,,,0.00,WUHU216HW,2013-03-11 09:05:00,
2013-03-11 02:30:00,45.2,34.8,29.91,WSW,248,0.0,0.0,67,0.00,,,0.00,WUHU216HW,2013-03-11 09:30:00,
2013-03-11 02:35:00,45.2,34.8,29.91,WSW,248,0.0,0.0,67,0.00,,,0.00,WUHU216HW,2013-03-11 09:35:00,
2013-03-11 03:00:00,44.5,34.6,29.91,WSW,248,0.0,0.0,68,0.00,,,0.00,WUHU216HW,2013-03-11 10:00:00,
2013-03-11 03:05:00,44.5,34.6,29.91,WSW,248,0.0,0.0,68,0.00,,,0.00,WUHU216HW,2013-03-11 10:05:00,
2013-03-11 03:30:00,43.9,34.0,29.91,WSW,248,0.0,0.0,68,0.00,,,0.00,WUHU216HW,2013-03-11 10:30:00,
2013-03-11 03:35:00,43.9,34.0,29.91,WSW,248,0.0,0.0,68,0.00,,,0.00,WUHU216HW,2013-03-11 10:35:00,
2013-03-11 04:00:00,43.4,33.9,29.90,SW,225,0.0,0.0,69,0.00,,,0.00,WUHU216HW,2013-03-11 11:00:00,
2013-03-11 04:05:00,43.4,33.9,29.90,SW,225,0.0,0.0,69,0.00,,,0.00,WUHU216HW,2013-03-11 11:05:00,
2013-03-11 04:30:00,42.7,33.7,29.90,WSW,248,0.0,0.0,70,0.00,,,0.00,WUHU216HW,2013-03-11 11:30:00,
2013-03-11 04:35:00,42.7,33.7,29.90,WSW,248,0.0,0.0,70,0.00,,,0.00,WUHU216HW,2013-03-11 11:35:00,
2013-03-11 04:59:00,42.1,33.5,29.90,WSW,248,0.0,0.0,71,0.00,,,0.00,WUHU216HW,2013-03-11 11:59:00,
2013-03-11 05:05:00,42.1,33.5,29.90,WSW,248,0.0,0.0,71,0.00,,,0.00,WUHU216HW,2013-03-11 12:05:00,
2013-03-11 05:30:00,41.9,33.3,29.90,WSW,248,0.0,0.0,71,0.00,,,0.00,WUHU216HW,2013-03-11 12:30:00,
2013-03-11 05:35:00,41.9,33.3,29.90,WSW,248,0.0,0.0,71,0.00,,,0.00,WUHU216HW,2013-03-11 12:35:00,
2013-03-11 05:59:00,41.4,32.8,29.91,WSW,248,0.0,0.0,71,0.00,,,0.00,WUHU216HW,2013-03-11 12:59:00,
2013-03-11 06:04:00,41.4,32.8,29.91,WSW,248,0.0,0.0,71,0.00,,,0.00,WUHU216HW,2013-03-11 13:04:00,
2013-03-11 06:30:00,41.0,33.0,29.91,WSW,248,0.0,0.0,73,0.00,,,0.00,WUHU216HW,2013-03-11 13:30:00,
2013-03-11 06:35:00,41.0,33.0,29.91,WSW,248,0.0,0.0,73,0.00,,,0.00,WUHU216HW,2013-03-11 13:35:00,
2013-03-11 06:59:00,40.9,32.9,29.91,WSW,248,0.0,0.0,73,0.00,,,0.00,WUHU216HW,2013-03-11 13:59:00,
2013-03-11 07:04:00,40.9,32.9,29.91,WSW,248,0.0,0.0,73,0.00,,,0.00,WUHU216HW,2013-03-11 14:04:00,
2013-03-11 07:30:00,40.7,33.0,29.91,WSW,248,0.0,0.0,74,0.00,,,0.00,WUHU216HW,2013-03-11 14:30:00,
2013-03-11 07:35:00,40.7,33.0,29.91,WSW,248,0.0,0.0,74,0.00,,,0.00,WUHU216HW,2013-03-11 14:35:00,
2013-03-11 07:59:00,40.9,33.1,29.91,WSW,248,0.0,0.0,74,0.00,,,0.00,WUHU216HW,2013-03-11 14:59:00,
2013-03-11 08:04:00,40.9,33.1,29.91,WSW,248,0.0,0.0,74,0.00,,,0.00,WUHU216HW,2013-03-11 15:04:00,
2013-03-11 08:30:00,42.7,35.3,29.92,WSW,248,0.0,0.0,75,0.00,,,0.00,WUHU216HW,2013-03-11 15:30:00,
2013-03-11 08:35:00,42.7,35.3,29.92,WSW,248,0.0,0.0,75,0.00,,,0.00,WUHU216HW,2013-03-11 15:35:00,
2013-03-11 09:00:00,45.0,37.2,29.91,WSW,248,0.0,0.0,74,0.00,,,0.00,WUHU216HW,2013-03-11 16:00:00,
2013-03-11 09:04:00,45.0,37.2,29.91,WSW,248,0.0,0.0,74,0.00,,,0.00,WUHU216HW,2013-03-11 16:04:00,
2013-03-11 09:30:00,47.2,38.6,29.92,NNW,338,0.0,0.0,72,0.00,,,0.00,WUHU216HW,2013-03-11 16:30:00,
2013-03-11 09:35:00,47.2,38.6,29.92,NNW,338,0.0,0.0,72,0.00,,,0.00,WUHU216HW,2013-03-11 16:35:00,
2013-03-11 09:40:00,47.2,38.6,29.92,NNW,338,0.0,0.0,72,0.00,,,0.00,WUHU216HW,2013-03-11 16:40:00,
2013-03-11 10:00:00,49.3,40.0,29.91,WSW,248,0.0,0.0,70,0.00,,,0.00,WUHU216HW,2013-03-11 17:00:00,
2013-03-11 10:05:00,49.3,40.0,29.91,WSW,248,0.0,0.0,70,0.00,,,0.00,WUHU216HW,2013-03-11 17:05:00,
2013-03-11 10:30:00,51.5,40.5,29.90,SSW,203,0.4,0.4,66,0.00,,,0.00,WUHU216HW,2013-03-11 17:30:00,
2013-03-11 10:35:00,51.5,40.5,29.90,SSW,203,0.4,0.4,66,0.00,,,0.00,WUHU216HW,2013-03-11 17:35:00,
2013-03-11 10:40:00,51.5,40.5,29.90,SSW,203,0.4,0.4,66,0.00,,,0.00,WUHU216HW,2013-03-11 17:40:00,
2013-03-11 11:00:00,53.3,40.6,29.90,North,0,2.0,2.0,62,0.00,,,0.00,WUHU216HW,2013-03-11 18:00:00,
2013-03-11 11:04:00,53.3,40.6,29.90,North,0,2.0,2.0,62,0.00,,,0.00,WUHU216HW,2013-03-11 18:04:00,
2013-03-11 11:30:00,56.5,41.0,29.89,North,0,0.2,0.2,56,0.00,,,0.00,WUHU216HW,2013-03-11 18:30:00,
2013-03-11 11:35:00,56.5,41.0,29.89,North,0,0.2,0.2,56,0.00,,,0.00,WUHU216HW,2013-03-11 18:35:00,
2013-03-11 12:00:00,59.9,42.8,29.89,North,0,0.0,0.0,53,0.00,,,0.00,WUHU216HW,2013-03-11 19:00:00,
2013-03-11 12:05:00,59.9,42.8,29.89,North,0,0.0,0.0,53,0.00,,,0.00,WUHU216HW,2013-03-11 19:05:00,
2013-03-11 12:30:00,66.4,44.9,29.88,SSW,203,0.7,0.7,46,0.00,,,0.00,WUHU216HW,2013-03-11 19:30:00,
2013-03-11 12:35:00,66.4,44.9,29.88,SSW,203,0.7,0.7,46,0.00,,,0.00,WUHU216HW,2013-03-11 19:35:00,
2013-03-11 13:00:00,68.2,47.2,29.87,SSW,203,0.7,0.7,47,0.00,,,0.00,WUHU216HW,2013-03-11 20:00:00,
2013-03-11 13:05:00,68.2,47.2,29.87,SSW,203,0.7,0.7,47,0.00,,,0.00,WUHU216HW,2013-03-11 20:05:00,
2013-03-11 13:30:00,70.6,48.7,29.84,North,0,0.4,0.4,46,0.00,,,0.00,WUHU216HW,2013-03-11 20:30:00,
2013-03-11 13:35:00,70.6,48.7,29.84,North,0,0.4,0.4,46,0.00,,,0.00,WUHU216HW,2013-03-11 20:35:00,
2013-03-11 14:00:00,72.4,48.5,29.83,North,0,0.9,0.9,43,0.00,,,0.00,WUHU216HW,2013-03-11 21:00:00,
2013-03-11 14:05:00,72.4,48.5,29.83,North,0,0.9,0.9,43,0.00,,,0.00,WUHU216HW,2013-03-11 21:05:00,
2013-03-11 14:30:00,73.4,48.9,29.82,North,0,0.9,0.9,42,0.00,,,0.00,WUHU216HW,2013-03-11 21:30:00,
2013-03-11 14:35:00,73.4,48.9,29.82,North,0,0.9,0.9,42,0.00,,,0.00,WUHU216HW,2013-03-11 21:35:00,
2013-03-11 14:40:00,73.4,48.9,29.82,North,0,0.9,0.9,42,0.00,,,0.00,WUHU216HW,2013-03-11 21:40:00,
2013-03-11 15:00:00,74.5,49.3,29.80,NW,315,0.4,0.4,41,0.00,,,0.00,WUHU216HW,2013-03-11 22:00:00,
2013-03-11 15:05:00,74.5,49.3,29.80,NW,315,0.4,0.4,41,0.00,,,0.00,WUHU216HW,2013-03-11 22:05:00,
2013-03-11 15:30:00,74.5,49.9,29.80,North,0,1.1,1.1,42,0.00,,,0.00,WUHU216HW,2013-03-11 22:30:00,
2013-03-11 15:35:00,74.5,49.9,29.80,North,0,1.1,1.1,42,0.00,,,0.00,WUHU216HW,2013-03-11 22:35:00,
2013-03-11 16:00:00,74.3,49.7,29.80,SE,135,1.1,1.1,42,0.00,,,0.00,WUHU216HW,2013-03-11 23:00:00,
2013-03-11 16:05:00,74.3,49.7,29.80,SE,135,1.1,1.1,42,0.00,,,0.00,WUHU216HW,2013-03-11 23:05:00,
2013-03-11 16:30:00,74.0,49.4,29.78,West,270,0.7,0.7,42,0.00,,,0.00,WUHU216HW,2013-03-11 23:30:00,
2013-03-11 16:35:00,74.0,49.4,29.78,West,270,0.7,0.7,42,0.00,,,0.00,WUHU216HW,2013-03-11 23:35:00,
2013-03-11 17:00:00,72.7,48.2,29.78,NE,45,2.0,2.0,42,0.00,,,0.00,WUHU216HW,2013-03-12 00:00:00,
2013-03-11 17:05:00,72.7,48.2,29.78,NE,45,2.0,2.0,42,0.00,,,0.00,WUHU216HW,2013-03-12 00:05:00,
2013-03-11 17:30:00,70.7,47.1,29.78,WNW,293,1.8,1.8,43,0.00,,,0.00,WUHU216HW,2013-03-12 00:30:00,
2013-03-11 17:35:00,70.7,47.1,29.78,WNW,293,1.8,1.8,43,0.00,,,0.00,WUHU216HW,2013-03-12 00:35:00,
2013-03-11 17:59:00,69.1,46.2,29.77,NNW,338,0.9,0.9,44,0.00,,,0.00,WUHU216HW,2013-03-12 00:59:00,
2013-03-11 18:04:00,69.1,46.2,29.77,NNW,338,0.9,0.9,44,0.00,,,0.00,WUHU216HW,2013-03-12 01:04:00,
2013-03-11 18:30:00,68.0,44.7,29.77,North,0,0.7,0.7,43,0.00,,,0.00,WUHU216HW,2013-03-12 01:30:00,
2013-03-11 18:35:00,68.0,44.7,29.77,North,0,0.7,0.7,43,0.00,,,0.00,WUHU216HW,2013-03-12 01:35:00,
2013-03-11 18:59:00,66.4,43.2,29.77,WNW,293,0.4,0.4,43,0.00,,,0.00,WUHU216HW,2013-03-12 01:59:00,
2013-03-11 19:05:00,66.4,43.2,29.77,WNW,293,0.4,0.4,43,0.00,,,0.00,WUHU216HW,2013-03-12 02:05:00,
2013-03-11 19:30:00,64.8,41.7,29.77,South,180,0.2,0.2,43,0.00,,,0.00,WUHU216HW,2013-03-12 02:30:00,
2013-03-11 19:34:00,64.8,41.7,29.77,South,180,0.2,0.2,43,0.00,,,0.00,WUHU216HW,2013-03-12 02:34:00,
2013-03-11 19:39:00,64.8,41.7,29.77,South,180,0.2,0.2,43,0.00,,,0.00,WUHU216HW,2013-03-12 02:39:00,
2013-03-11 20:00:00,63.4,41.5,29.77,NNW,338,0.0,0.0,45,0.00,,,0.00,WUHU216HW,2013-03-12 03:00:00,
2013-03-11 20:05:00,63.4,41.5,29.77,NNW,338,0.0,0.0,45,0.00,,,0.00,WUHU216HW,2013-03-12 03:05:00,
2013-03-11 20:30:00,61.9,41.4,29.77,SW,225,0.0,0.0,47,0.00,,,0.00,WUHU216HW,2013-03-12 03:30:00,
2013-03-11 20:34:00,61.9,41.4,29.77,SW,225,0.0,0.0,47,0.00,,,0.00,WUHU216HW,2013-03-12 03:34:00,
2013-03-11 20:59:00,59.0,40.5,29.77,SW,225,0.4,0.4,50,0.00,,,0.00,WUHU216HW,2013-03-12 03:59:00,
2013-03-11 21:00:00,59.0,40.5,29.77,SW,225,0.4,0.4,50,0.00,,,0.00,WUHU216HW,2013-03-12 04:00:00,
2013-03-11 21:05:00,59.0,40.5,29.77,SW,225,0.4,0.4,50,0.00,,,0.00,WUHU216HW,2013-03-12 04:05:00,
2013-03-11 21:30:00,57.4,40.4,29.78,SW,225,0.0,0.0,53,0.00,,,0.00,WUHU216HW,2013-03-12 04:30:00,
2013-03-11 21:34:00,57.4,40.4,29.78,SW,225,0.0,0.0,53,0.00,,,0.00,WUHU216HW,2013-03-12 04:34:00,
2013-03-11 21:59:00,56.0,40.0,29.78,SW,225,0.2,0.2,55,0.00,,,0.00,WUHU216HW,2013-03-12 04:59:00,
2013-03-11 22:04:00,56.0,40.0,29.78,SW,225,0.2,0.2,55,0.00,,,0.00,WUHU216HW,2013-03-12 05:04:00,
2013-03-11 22:30:00,55.1,40.1,29.78,WSW,248,0.0,0.0,57,0.00,,,0.00,WUHU216HW,2013-03-12 05:30:00,
2013-03-11 22:34:00,55.1,40.1,29.78,WSW,248,0.0,0.0,57,0.00,,,0.00,WUHU216HW,2013-03-12 05:34:00,
2013-03-11 22:59:00,53.6,40.1,29.78,WSW,248,0.0,0.0,60,0.00,,,0.00,WUHU216HW,2013-03-12 05:59:00,
2013-03-11 23:04:00,53.6,40.1,29.78,WSW,248,0.0,0.0,60,0.00,,,0.00,WUHU216HW,2013-03-12 06:04:00,
2013-03-11 23:30:00,52.9,39.8,29.78,WSW,248,0.0,0.0,61,0.00,,,0.00,WUHU216HW,2013-03-12 06:30:00,
2013-03-11 23:35:00,52.9,39.8,29.78,WSW,248,0.0,0.0,61,0.00,,,0.00,WUHU216HW,2013-03-12 06:35:00,
2013-03-11 23:59:00,51.8,39.6,29.78,WSW,248,0.0,0.0,63,0.00,,,0.00,WUHU216HW,2013-03-12 06:59:00,